Volver al catálogo

STARLINK-36807

ActivoComunicacionesSSO
NORAD 67810·PAYLOAD·🇺🇸 United States

Lanzado Feb 15, 2026 desde Vandenberg Space Force Base

Loading…

Próximos Pases (próximas 24 horas)

TLE

ActualizadoSource: CelesTrak SupGP

Época: Sep 14, 2026, 23:16 UTC

1 67810C 26032P   26257.96993056  .00062195  00000+0  19296-2 0  2572
2 67810  97.2856  84.4696 0001664 107.4200  75.0878 15.33425425    19

Sigue STARLINK-36807 en tiempo real con AllMySat

Download on the App Store